CW1203 Weather Reports


time (UTC)temp
C
wind
direction
speed
KPH
gust
KPH
rain 1hr
cm
rain 24hr
cm
rain mn
cm
humidity
%
barometer
mb
20210920043002 18 96 0.0 0.0 0.00 0.25 0.00 98 1023.2
20210920041501 18 96 0.0 0.0 0.00 0.25 0.00 98 1023.3
20210920040120 19 96 0.0 0.0 0.00 0.25 0.00 98 1023.3
20210920034627 18 96 0.0 0.0 0.00 0.25 0.25 98 1023.5
20210920033121 18 96 0.0 0.0 0.00 0.25 0.25 98 1023.4
20210920031651 19 96 0.0 0.0 0.00 0.25 0.25 98 1023.3
20210920030146 19 96 0.0 0.0 0.00 0.25 0.25 98 1023.3
20210920024622 19 96 0.0 0.0 0.00 0.25 0.25 98 1023.3
20210920023157 19 96 0.0 0.0 0.00 0.25 0.25 98 1023.1
20210920021600 18 96 0.0 0.0 0.00 0.25 0.25 98 1023.0
20210920020149 18 96 0.0 0.0 0.00 0.25 0.25 98 1022.9
20210920014658 18 96 0.0 0.0 0.00 0.25 0.25 98 1022.8
20210920013138 19 96 0.0 0.0 0.00 0.25 0.25 98 1022.8
20210920011611 19 96 0.0 0.0 0.00 0.25 0.25 97 1022.7
20210920010157 19 96 0.0 0.0 0.00 0.25 0.25 97 1022.4
20210920004707 20 96 0.0 0.0 0.00 0.25 0.25 97 1022.1
20210920003123 20 96 0.0 0.0 0.00 0.25 0.25 97 1021.9
20210920001627 20 96 0.0 0.0 0.00 0.25 0.25 97 1021.8
20210920000111 20 96 0.0 0.0 0.03 0.25 0.25 97 1021.7
20210919234600 20 96 0.0 0.0 0.03 0.25 0.25 97 1021.7
20210919233119 20 96 0.0 0.0 0.03 0.25 0.25 97 1021.7
20210919231617 20 96 0.0 0.0 0.03 0.25 0.25 97 1021.8
20210919224636 20 52 0.0 0.0 0.00 0.23 0.23 96 1022.0
20210919223215 20 52 0.0 0.0 0.00 0.23 0.23 95 1021.9
20210919221732 20 70 0.0 0.0 0.00 0.23 0.23 94 1021.9
20210919220049 20 72 0.0 0.0 0.00 0.23 0.23 95 1021.8
20210919214601 20 269 0.0 0.0 0.00 0.23 0.23 95 1021.6
20210919213103 20 263 0.0 0.0 0.03 0.23 0.23 95 1021.4
20210919211612 20 263 0.0 0.0 0.18 0.23 0.23 95 1021.5
20210919210103 20 263 0.0 0.0 0.20 0.23 0.23 94 1021.5
20210919204613 21 319 0.0 0.0 0.20 0.23 0.23 92 1021.5
20210919203200 22 259 0.0 0.0 0.18 0.20 0.20 90 1021.6
20210919201607 23 347 0.0 1.6 0.00 0.03 0.03 87 1021.5
20210919200119 23 316 0.0 0.0 0.00 0.03 0.03 86 1021.5
20210919194751 23 90 0.0 3.2 0.00 0.03 0.03 87 1021.7
20210919193058 23 226 0.0 0.0 0.00 0.03 0.03 90 1022.0
20210919191611 23 225 0.0 0.0 0.00 0.03 0.03 90 1022.2
20210919190038 23 225 0.0 1.6 0.03 0.03 0.03 89 1022.5
20210919184542 23 243 0.0 0.0 0.03 0.03 0.03 88 1022.6
20210919183039 23 243 0.0 0.0 0.03 0.03 0.03 90 1022.8
20210919181645 24 235 0.0 0.0 0.03 0.03 0.03 89 1022.9
20210919180035 23 226 0.0 1.6 0.00 0.00 0.00 86 1023.1
20210919174613 24 339 0.0 0.0 0.00 0.00 0.00 85 1023.2
20210919173102 24 56 0.0 1.6 0.00 0.00 0.00 85 1023.4
20210919171604 23 46 0.0 3.2 0.00 0.00 0.00 85 1023.5
20210919170127 23 91 0.0 3.2 0.00 0.00 0.00 82 1023.6
20210919164553 23 79 0.0 1.6 0.00 0.00 0.00 87 1023.6
20210919163111 23 82 0.0 1.6 0.00 0.00 0.00 85 1023.8
20210919161534 23 81 0.0 6.4 0.00 0.00 0.00 87 1023.8
20210919160119 23 105 0.0 6.4 0.00 0.00 0.00 86 1023.8
20210919154540 23 51 1.6 11.3 0.00 0.00 0.00 85 1023.9
20210919153048 23 50 0.0 0.0 0.00 0.00 0.00 86 1023.7
20210919151555 23 98 0.0 1.6 0.00 0.00 0.00 84 1023.9
20210919150030 23 127 0.0 1.6 0.00 0.00 0.00 85 1023.8
20210919144518 22 72 0.0 1.6 0.00 0.00 0.00 86 1023.8
20210919143031 22 113 0.0 3.2 0.00 0.00 0.00 87 1023.9
20210919141544 21 96 0.0 3.2 0.00 0.00 0.00 88 1023.7
20210919140003 21 79 0.0 4.8 0.00 0.00 0.00 89 1023.6
20210919134617 21 100 0.0 3.2 0.00 0.00 0.00 89 1023.5
20210919133245 21 83 0.0 1.6 0.00 0.00 0.00 91 1023.4
20210919131615 20 319 0.0 1.6 0.00 0.00 0.00 91 1023.5
20210919130118 20 36 0.0 1.6 0.00 0.00 0.00 93 1023.3
20210919124633 20 268 0.0 1.6 0.00 0.00 0.00 95 1023.3
20210919123135 19 356 0.0 0.0 0.00 0.00 0.00 97 1023.3
20210919121614 18 117 0.0 0.0 0.00 0.00 0.00 97 1023.3
20210919120134 18 108 0.0 0.0 0.00 0.00 0.00 97 1023.3
20210919114615 18 108 0.0 0.0 0.00 0.00 0.00 97 1023.0
20210919113040 18 108 0.0 0.0 0.00 0.00 0.00 96 1022.9
20210919111632 18 55 0.0 0.0 0.00 0.00 0.00 96 1022.9
20210919110111 19 349 0.0 0.0 0.00 0.00 0.00 95 1022.8
20210919104555 19 334 0.0 1.6 0.00 0.00 0.00 95 1022.8
20210919103116 19 262 0.0 1.6 0.00 0.00 0.00 96 1022.7
20210919101703 18 318 0.0 0.0 0.00 0.00 0.00 97 1022.5
20210919100037 18 44 0.0 0.0 0.00 0.00 0.00 97 1022.5
20210919094552 18 72 0.0 0.0 0.00 0.00 0.00 97 1022.4
20210919093159 18 73 0.0 0.0 0.00 0.00 0.00 97 1022.4
20210919091559 18 73 0.0 0.0 0.00 0.00 0.00 97 1022.3
20210919090037 18 73 0.0 0.0 0.00 0.00 0.00 97 1022.1
20210919084602 18 72 0.0 0.0 0.00 0.00 0.00 97 1022.1
20210919083050 18 328 0.0 0.0 0.00 0.00 0.00 97 1022.2
20210919081538 18 335 0.0 0.0 0.00 0.00 0.00 97 1022.2
20210919080108 18 334 0.0 0.0 0.00 0.00 0.00 97 1022.2
20210919074627 18 319 0.0 0.0 0.00 0.00 0.00 97 1022.3
20210919073056 18 20 0.0 0.0 0.00 0.00 0.00 97 1022.4
20210919071620 18 76 0.0 1.6 0.00 0.00 0.00 98 1022.6
20210919070028 18 342 0.0 1.6 0.00 0.00 0.00 98 1022.8
20210919064525 18 147 0.0 0.0 0.00 0.00 0.00 98 1023.0
20210919063029 18 147 0.0 0.0 0.00 0.00 0.00 98 1022.9
20210919061558 18 160 0.0 0.0 0.00 0.00 0.00 98 1022.9
20210919060055 18 161 0.0 0.0 0.00 0.00 0.00 98 1022.9
20210919053025 18 161 0.0 0.0 0.00 0.00 0.00 98 1022.9
20210919051533 18 162 0.0 0.0 0.00 0.00 0.00 98 1022.9
20210919050024 18 205 0.0 0.0 0.00 0.00 0.00 98 1022.9
20210919044510 18 220 0.0 0.0 0.00 0.00 0.00 98 1022.8